Location: Rock Island IL
(41.5000°N, 90.5500°W)
Time: 21:02:41
(UTC-05:00)

Daily predictions for brighter satellites

Satellite Brightness Start Highest point End
(mag) Time Altitude Azimuth Time Altitude Azimuth Time Altitude Azimuth
Okean 3 Rocket 3.8 21:03:58 10° S 21:08:22 55° E 21:12:45 10° NNE
Cosmos 1741 Rocket 4.0 21:06:05 10° SSW 21:11:22 77° ESE 21:16:42 10° NNE
H-2A R/B 3.8 21:09:19 10° ESE 21:12:58 19° ENE 21:16:41 10° NNE
Helios 1B rocket 2.4 21:09:58 10° NNE 21:14:08 72° ESE 21:18:15 10° S
SJ-11-01 4.4 21:09:52 10° SSE 21:14:37 90° W 21:19:24 10° NNW
Cosmos 1766 Rocket 4.4 21:13:16 10° SSE 21:17:06 32° E 21:20:59 10° NNE
Cosmos 1818 3.7 21:12:46 10° NW 21:18:13 79° WSW 21:23:38 10° SSE
Cosmos 2084 3.5 21:16:05 10° SW 21:20:06 73° NW 21:23:57 10° NNE
YAOGAN 6 2.6 21:16:40 10° SSE 21:20:17 71° ENE 21:23:59 10° N
ERBS 4.0 21:19:22 10° NNW 21:22:13 24° NE 21:25:04 10° E
Cosmos 2297 Rocket 3.9 21:20:49 10° SW 21:26:03 38° WNW 21:31:19 10° N
Helios 1A 3.4 21:23:28 10° S 21:27:34 64° WSW 21:31:42 10° NNW
Cosmos 1726 3.4 21:25:26 10° NNE 21:28:34 26° ENE 21:31:25 11° SE
Cosmos 2263 Rocket 3.5 21:29:33 10° SE 21:33:23 19° E 21:37:14 10° NE
GPS 2-05 Rocket1 4.3 21:31:28 10° SSW 21:33:29 16° SSE 21:34:45 13° SE
ATLAS 5 CENTAUR R/B 2.8 21:30:27 10° SW 21:35:00 52° NW 21:40:00 10° NNE
Cosmos 1300 3.9 21:35:01 10° NNE 21:38:20 27° ENE 21:40:57 14° SE
Lacrosse 5 2.1 21:33:36 10° NW 21:38:39 65° NE 21:43:10 13° ESE
Envisat 4.2 21:34:16 10° SSW 21:39:02 41° W 21:43:50 10° NNW
Meteor 1-29 3.4 21:35:40 10° N 21:39:05 65° WNW 21:42:30 10° SSW
Cosmos 1356 Rocket 3.5 21:35:37 10° S 21:39:52 89° ESE 21:44:12 10° N
SPOT 5 3.6 21:35:37 11° SE 21:39:54 41° ENE 21:44:41 10° N
Resurs 01 Rocket 4.2 21:37:18 10° SW 21:40:12 17° W 21:43:07 10° NW
Cosmos 2228 Rocket 4.2 21:37:19 10° NNE 21:41:23 30° ENE 21:44:39 14° SE
Abrixas rocket 3.0 21:41:53 10° NW 21:45:01 45° NNE 21:47:58 11° E
Meteor 1-21 Rocket 4.3 21:41:20 10° S 21:47:01 89° W 21:52:38 10° N
SL-14 R/B 4.1 21:44:49 13° SSE 21:47:53 33° E 21:51:27 10° NNE
Cosmos 1459 Rocket 4.1 21:42:38 10° N 21:48:58 87° W 21:55:09 10° S
Cosmos 1763 Rocket 4.2 21:47:31 10° N 21:52:19 39° ENE 21:55:57 16° SE
RESURS DK-1 2.4 21:48:27 10° NNW 21:52:38 70° ENE 21:55:44 17° SE
Cosmos 220 Rocket 4.3 21:49:08 10° S 21:53:21 46° ESE 21:57:33 10° NNE
EO 1 Delta rocket 4.4 21:51:25 15° SE 21:54:52 40° ENE 21:59:14 10° N
SL-08 RB Rocket 4.1 21:53:52 16° SE 21:57:20 51° ENE 22:01:49 10° N
Cosmos 2100 Rocket 4.3 21:51:29 10° NNW 21:57:47 70° W 22:04:05 10° S
H-2A ROCKET BODY 3.8 21:56:04 10° S 21:59:13 18° SE 22:05:41 10° ESE
Cosmos 1328 4.2 21:56:11 15° SSE 21:59:17 45° E 22:03:10 10° NNE
Cosmos 1674 4.0 21:58:56 10° SSW 22:02:30 41° WNW 22:06:04 10° N
Meteor 2-2 Rocket 4.4 21:57:17 10° N 22:03:04 68° ENE 22:07:52 16° SSE
Cosmos 1603 3.7 21:58:56 10° NNW 22:04:37 89° WSW 22:09:01 17° SSE
MetOp-A 4.2 22:00:44 12° S 22:05:45 81° WSW 22:11:09 10° NNW
Cosmos 2173 Rocket 4.3 21:59:47 10° NNW 22:05:53 66° W 22:12:04 10° S
Cosmos 2123 Rocket 4.0 22:01:29 10° S 22:07:35 69° E 22:13:46 10° NNE
SPOT 1/Viking Rocket 3.8 22:04:06 18° SE 22:07:48 55° ENE 22:12:50 10° N
Cosmos 2061 Rocket 4.3 22:01:47 10° NNW 22:08:08 70° W 22:14:31 10° S
Terra 3.1 22:07:16 17° ESE 22:09:57 27° ENE 22:13:56 10° N
Cosmos 1242 Rocket 4.2 22:06:37 10° NNW 22:10:00 33° W 22:13:20 10° SSW
ARGOS 3.2 22:05:26 15° SSE 22:10:00 86° ENE 22:15:26 10° NNW
Cosmos 1455 4.2 22:08:54 10° NE 22:11:14 15° ENE 22:12:26 14° E
Cosmos 332 Rocket 3.8 22:09:21 10° NNW 22:14:16 85° WSW 22:17:42 20° SSE
Cosmos 1408 Rocket 4.1 22:12:07 10° SSW 22:16:20 56° W 22:20:37 10° N
Cosmos 1943 3.4 22:13:01 10° NNW 22:18:38 61° ENE 22:22:12 23° SE
USA 234 3.2 22:12:30 10° NE 22:18:59 61° SE 22:25:25 10° SSW
SL-16 R/B 4.2 22:16:27 10° NW 22:20:45 23° W 22:25:02 10° SSW
Cosmos 2151 3.4 22:19:26 25° SSE 22:21:34 45° E 22:25:41 10° NNE
Cosmos 468 Rocket 4.4 22:19:41 10° NNW 22:24:42 57° WSW 22:28:27 18° S
ERS-1 Rocket 4.1 22:22:02 10° SSW 22:26:44 39° W 22:31:27 10° NNW
Cosmos 1725 Rocket 4.0 22:24:06 10° N 22:30:23 84° W 22:35:04 18° S
Tiangong 1 0.7 22:28:06 10° WNW 22:30:54 83° NNE 22:31:32 49° E
Cosmos 1500 Rocket 3.5 22:34:24 22° S 22:37:13 84° E 22:41:42 10° N
Cosmos 1503 Rocket 4.2 22:36:35 26° SSE 22:39:12 49° ESE 22:44:12 10° NNE
Abrixas 2.0 22:38:09 10° WSW 22:40:46 82° SSW 22:40:46 82° SSW
CARTOSAT-1 3.6 22:46:25 36° SE 22:47:58 63° ENE 22:52:15 10° N
Cosmos 540 Rocket 4.0 22:43:50 10° N 22:48:49 47° ENE 22:50:56 30° ESE
CZ-4B R/B 4.4 22:44:46 10° NE 22:49:27 32° E 22:50:35 29° ESE
Cosmos 1703 3.2 22:48:32 41° SSE 22:49:45 68° E 22:53:44 10° NNE
H-2A R/B 2.5 22:48:33 23° S 22:51:51 62° W 22:57:14 10° NNW
Cosmos 1805 Rocket 4.1 22:55:56 37° ESE 22:56:37 39° E 23:00:40 10° NNE
IGS 5A 3.4 22:55:39 44° SSE 22:56:54 74° ENE 23:01:04 10° N
ERBS 3.3 22:55:50 10° WNW 22:58:56 34° SW 22:59:06 33° SW
Cosmos 1626 2.0 22:58:41 46° SSW 22:59:42 85° W 23:03:27 10° N
CZ-4C R/B 2.8 22:59:53 31° ESE 23:00:09 31° ESE 23:05:06 10° NE
Cosmos 1633 Rocket 4.4 23:00:57 24° E 23:01:04 24° E 23:04:35 10° NE
Cosmos 1151 Rocket 3.4 22:57:20 10° NNW 23:01:40 60° W 23:03:28 32° SSW
Cosmos 371 Rocket 4.5 22:59:09 10° NW 23:03:29 34° WSW 23:05:56 21° SSW
H-2A R/B 1.9 23:07:51 49° SSE 23:08:57 80° ENE 23:13:12 10° N
Delta 2 Rocket 4.3 23:07:10 10° WSW 23:12:41 47° S 23:13:58 40° SE
SWAS 4.4 23:12:45 53° S 23:13:36 69° ESE 23:17:54 10° NNE
Cosmos 2263 Rocket 2.7 23:11:19 10° SW 23:16:47 58° WNW 23:22:18 10° NNE
Cosmos 2233 Rocket 4.5 23:14:55 10° NNW 23:20:55 54° W 23:24:21 25° SSW
Lacrosse 5 3.5 23:17:26 10° WNW 23:21:12 21° WSW 23:22:21 20° SW
Abrixas rocket 3.9 23:18:48 10° W 23:20:36 24° WSW 23:20:36 24° WSW
Cosmos 1354 Rocket 4.3 23:21:04 21° SW 23:24:30 64° WNW 23:29:43 10° NNE
Cosmos 2058 4.2 23:24:03 21° SW 23:26:15 36° WNW 23:30:10 10° N
CZ-2C R/B 4.4 23:28:54 25° ESE 23:30:57 32° ENE 23:35:54 10° N
COSMOS 2406 3.9 23:26:05 10° NNW 23:31:31 43° ENE 23:33:34 31° ESE
Cosmos 2242 Rocket 4.2 23:34:16 10° N 23:38:38 42° ENE 23:39:05 41° E
Cosmos 292 Rocket 4.5 23:38:09 10° N 23:42:40 41° ENE 23:43:34 37° E
SL-24 R/B 4.4 23:43:55 67° SW 23:44:17 72° WSW 23:48:28 10° NNW
Cosmos 1455 3.3 23:43:33 10° NNW 23:47:04 34° W 23:47:26 34° WSW
Terra 3.0 23:46:09 27° SW 23:47:34 32° W 23:51:50 10° NNW
Cosmos 1844 Rocket 2.7 23:49:03 53° SE 23:49:51 58° ESE 23:55:20 10° NNE
Sich 1 2.9 23:51:22 69° SW 23:51:44 75° W 23:56:01 10° N
Cosmos 783 Rocket 4.5 23:47:24 10° NNW 23:52:43 78° WSW 23:53:44 58° S
